User: anonymous
Location: Fort Wayne
(41.1310°N, 85.1290°W)
Time: 04:35:03
(UTC-04:00)
Language:

COSMOS 2406 - Orbit

View from above orbital plane
View from above orbital plane
View from above satellite
View from above satellite

Ground track
Ground track

The orbit data is extracted from the following two-line orbital elements,

1 28352U 04021A   14212.82811459  .00000213  00000-0  14390-3 0  3535
2 28352 071.0050 159.3945 0016972 254.5077 132.8340 14.11354046522500
Epoch (UTC): 31 July 2014 19:52:29
Eccentricity: 0.0016972
inclination: 71.0050°
perigee height: 842 km
apogee height: 867 km
right ascension of ascending node: 159.3945°
argument of perigee: 254.5077°
revolutions per day: 14.11354046
mean anomaly at epoch: 132.8340°
orbit number at epoch: 52250

The dashed part of the orbit path shows where the satellite is in the earth's shadow,  

DLR